,,,PA_Meas_PMT16A,,PR_Meas_QMR101_102,,RH_Meas_QMH101,,SR_Meas_QMS101,,TA_Meas_QMH101,,GenWind,,GenWind,
date,time,status,PA,status,PR,status,RH,status,SR,status,TA,status,DirAvg,status,SpdAvg,
2012-05-06, 00:00:05,VALID,999.913,VALID,0,VALID,92.9135,VALID,0,VALID,23.6427,VALID,71,VALID,0.328125,
2012-05-06, 00:01:05,VALID,999.867,VALID,0,VALID,92.8601,VALID,0,VALID,23.6622,VALID,71,VALID,0.232031,
2012-05-06, 00:02:05,VALID,999.871,VALID,0,VALID,92.7762,VALID,0,VALID,23.6622,VALID,71,VALID,0.200781,
2012-05-06, 00:03:05,VALID,999.858,VALID,0,VALID,92.6846,VALID,0,VALID,23.6622,VALID,71,VALID,0.291016,
2012-05-06, 00:04:05,VALID,999.814,VALID,0,VALID,92.5931,VALID,0,VALID,23.6817,VALID,71,VALID,0.360547,
2012-05-06, 00:05:05,VALID,999.813,VALID,0,VALID,92.5091,VALID,0,VALID,23.6817,VALID,71,VALID,0.273047,
2012-05-06, 00:06:05,VALID,999.829,VALID,0,VALID,92.4328,VALID,0,VALID,23.6817,VALID,71,VALID,0.43125,
2012-05-06, 00:07:05,VALID,999.803,VALID,0,VALID,92.3642,VALID,0,VALID,23.7012,VALID,71,VALID,0.445313,
2012-05-06, 00:08:05,VALID,999.763,VALID,0,VALID,92.3413,VALID,0,VALID,23.7012,VALID,71,VALID,0.600781,
2012-05-06, 00:09:05,VALID,999.805,VALID,0,VALID,92.2955,VALID,0,VALID,23.6817,VALID,71,VALID,0.580078,
2012-05-06, 00:10:05,VALID,999.75,VALID,0,VALID,92.471,VALID,0,VALID,23.7012,VALID,71,VALID,0.641797,
2012-05-06, 00:11:05,VALID,999.762,VALID,0,VALID,92.5473,VALID,0,VALID,23.6817,VALID,71,VALID,0.576953,
2012-05-06, 00:12:05,VALID,999.782,VALID,0,VALID,92.5931,VALID,0,VALID,23.6817,VALID,71,VALID,0.823438,
2012-05-06, 00:13:05,VALID,999.78,VALID,0,VALID,92.6236,VALID,0,VALID,23.6622,VALID,71,VALID,0.764844,
2012-05-06, 00:14:05,VALID,999.755,VALID,0,VALID,92.7304,VALID,0,VALID,23.6427,VALID,71,VALID,0.742969,
2012-05-06, 00:15:05,VALID,999.778,VALID,0,VALID,92.8372,VALID,0,VALID,23.6409,VALID,71,VALID,0.604297,
2012-05-06, 00:16:05,VALID,999.767,VALID,0,VALID,92.8754,VALID,0,VALID,23.6232,VALID,71,VALID,0.537109,
2012-05-06, 00:17:05,VALID,999.732,VALID,0,VALID,92.883,VALID,0,VALID,23.6036,VALID,71,VALID,0.534375,
2012-05-06, 00:18:05,VALID,999.711,VALID,0,VALID,92.9059,VALID,0,VALID,23.6036,VALID,71,VALID,0.598828,
2012-05-06, 00:19:05,VALID,999.697,VALID,0,VALID,92.9059,VALID,0,VALID,23.5841,VALID,71,VALID,0.473828,
2012-05-06, 00:20:05,VALID,999.677,VALID,0,VALID,92.8906,VALID,0,VALID,23.5646,VALID,71,VALID,0.441016,
2012-05-06, 00:21:05,VALID,999.684,VALID,0,VALID,92.9059,VALID,0,VALID,23.5451,VALID,71,VALID,0.36875,
2012-05-06, 00:22:05,VALID,999.676,VALID,0,VALID,92.9517,VALID,0,VALID,23.5043,VALID,71,VALID,0.296484,
2012-05-06, 00:23:05,VALID,999.671,VALID,0,VALID,92.9974,VALID,0,VALID,23.4848,VALID,71,VALID,0.112109,
2012-05-06, 00:24:05,VALID,999.65,VALID,0,VALID,92.9898,VALID,0,VALID,23.4653,VALID,71,VALID,0,
2012-05-06, 00:25:05,VALID,999.632,VALID,0,VALID,92.9974,VALID,0,VALID,23.4458,VALID,71,VALID,0,
2012-05-06, 00:26:05,VALID,999.631,VALID,0,VALID,92.9974,VALID,0,VALID,23.4263,VALID,71,VALID,0,
2012-05-06, 00:27:05,VALID,999.638,VALID,0,VALID,92.9669,VALID,0,VALID,23.3872,VALID,71,VALID,0,
2012-05-06, 00:28:05,VALID,999.608,VALID,0,VALID,92.944,VALID,0,VALID,23.3482,VALID,71,VALID,0,
2012-05-06, 00:29:05,VALID,999.599,VALID,0,VALID,92.9288,VALID,0,VALID,23.3287,VALID,71,VALID,0,
2012-05-06, 00:30:05,VALID,999.554,VALID,0,VALID,93.0051,VALID,0,VALID,23.3305,VALID,71,VALID,0,
2012-05-06, 00:31:05,VALID,999.558,VALID,0,VALID,93.1348,VALID,0,VALID,23.311,VALID,71,VALID,0,
2012-05-06, 00:32:05,VALID,999.503,VALID,0,VALID,93.3026,VALID,0,VALID,23.3092,VALID,71,VALID,0.219531,
2012-05-06, 00:33:05,VALID,999.502,VALID,0,VALID,93.3789,VALID,0,VALID,23.311,VALID,71,VALID,0.153906,
2012-05-06, 00:34:05,VALID,999.494,VALID,0,VALID,93.4476,VALID,0,VALID,23.311,VALID,71,VALID,0.519922,
2012-05-06, 00:35:05,VALID,999.46,VALID,0,VALID,93.5468,VALID,0,VALID,23.3092,VALID,71,VALID,0.489844,
2012-05-06, 00:36:05,VALID,999.535,VALID,0,VALID,93.6307,VALID,0,VALID,23.35,VALID,71,VALID,0.451562,
2012-05-06, 00:37:05,VALID,999.498,VALID,0,VALID,93.6307,VALID,0,VALID,23.3482,VALID,71,VALID,0.447266,
2012-05-06, 00:38:05,VALID,999.526,VALID,0,VALID,93.6078,VALID,0,VALID,23.3677,VALID,71,VALID,0.38125,
2012-05-06, 00:39:05,VALID,999.538,VALID,0,VALID,93.6002,VALID,0,VALID,23.3872,VALID,71,VALID,0.421484,
2012-05-06, 00:40:05,VALID,999.51,VALID,0,VALID,93.5849,VALID,0,VALID,23.3872,VALID,71,VALID,0.322656,
2012-05-06, 00:41:05,VALID,999.544,VALID,0,VALID,93.5849,VALID,0,VALID,23.3872,VALID,71,VALID,0.376953,
2012-05-06, 00:42:05,VALID,999.531,VALID,0,VALID,93.5544,VALID,0,VALID,23.3872,VALID,71,VALID,0.124609,
2012-05-06, 00:43:05,VALID,999.515,VALID,0,VALID,93.5773,VALID,0,VALID,23.428,VALID,71,VALID,0.269922,
2012-05-06, 00:44:05,VALID,999.502,VALID,0,VALID,93.6002,VALID,0,VALID,23.4067,VALID,71,VALID,0.307031,
2012-05-06, 00:45:05,VALID,999.522,VALID,0,VALID,93.6002,VALID,0,VALID,23.4263,VALID,71,VALID,0.382031,
2012-05-06, 00:46:05,VALID,999.506,VALID,0,VALID,93.6078,VALID,0,VALID,23.4263,VALID,71,VALID,0.529297,
2012-05-06, 00:47:05,VALID,999.512,VALID,0,VALID,93.6002,VALID,0,VALID,23.4263,VALID,71,VALID,0.495703,
2012-05-06, 00:48:05,VALID,999.52,VALID,0,VALID,93.5926,VALID,0,VALID,23.4671,VALID,71,VALID,0.428516,
2012-05-06, 00:49:05,VALID,999.472,VALID,0,VALID,93.5544,VALID,0,VALID,23.4653,VALID,71,VALID,0.503906,
2012-05-06, 00:50:05,VALID,999.447,VALID,0,VALID,93.4781,VALID,0,VALID,23.4458,VALID,71,VALID,0.566016,
2012-05-06, 00:51:05,VALID,999.439,VALID,0,VALID,93.356,VALID,0,VALID,23.4458,VALID,133,VALID,0.658594,
2012-05-06, 00:52:05,VALID,999.395,VALID,0,VALID,93.234,VALID,0.104696,VALID,23.4866,VALID,133,VALID,0.636719,
2012-05-06, 00:53:05,VALID,999.396,VALID,0,VALID,93.1348,VALID,0,VALID,23.4458,VALID,133,VALID,0.637891,
2012-05-06, 00:54:05,VALID,999.36,VALID,0,VALID,93.0432,VALID,0,VALID,23.4458,VALID,133,VALID,0.789844,
2012-05-06, 00:55:05,VALID,999.324,VALID,0,VALID,93.028,VALID,0,VALID,23.4458,VALID,133,VALID,0.805078,
2012-05-06, 00:56:05,VALID,999.311,VALID,0,VALID,92.9974,VALID,0,VALID,23.4475,VALID,133,VALID,0.878906,
2012-05-06, 00:57:05,VALID,999.283,VALID,0,VALID,92.944,VALID,0,VALID,23.4263,VALID,133,VALID,0.817187,
2012-05-06, 00:58:05,VALID,999.305,VALID,0,VALID,92.9669,VALID,0,VALID,23.4067,VALID,133,VALID,0.669141,
2012-05-06, 00:59:05,VALID,999.308,VALID,0,VALID,92.9669,VALID,0.104696,VALID,23.4067,VALID,133,VALID,0.574219,
2012-05-06, 01:00:05,VALID,999.27,VALID,0,VALID,92.9517,VALID,0,VALID,23.4067,VALID,133,VALID,0.466406,
2012-05-06, 01:01:05,VALID,999.243,VALID,0,VALID,92.9211,VALID,0,VALID,23.4067,VALID,133,VALID,0.295703,
2012-05-06, 01:02:05,VALID,999.242,VALID,0,VALID,92.8906,VALID,0,VALID,23.3872,VALID,133,VALID,0.210156,
2012-05-06, 01:03:05,VALID,999.257,VALID,0,VALID,92.8754,VALID,0,VALID,23.3677,VALID,133,VALID,0.0867188,
2012-05-06, 01:04:05,VALID,999.209,VALID,0,VALID,92.8372,VALID,0,VALID,23.3695,VALID,133,VALID,0,
2012-05-06, 01:05:05,VALID,999.189,VALID,0,VALID,92.8525,VALID,0,VALID,23.35,VALID,133,VALID,0,
2012-05-06, 01:06:05,VALID,999.195,VALID,0,VALID,92.944,VALID,0,VALID,23.3092,VALID,133,VALID,0,
2012-05-06, 01:07:05,VALID,999.196,VALID,0,VALID,92.9898,VALID,0,VALID,23.3092,VALID,133,VALID,0,
2012-05-06, 01:08:05,VALID,999.196,VALID,0,VALID,93.0127,VALID,0.104696,VALID,23.2897,VALID,133,VALID,0.0601562,
2012-05-06, 01:09:05,VALID,999.207,VALID,0,VALID,93.1195,VALID,0,VALID,23.2702,VALID,133,VALID,0.375391,
2012-05-06, 01:10:05,VALID,999.19,VALID,0,VALID,93.234,VALID,0,VALID,23.2702,VALID,133,VALID,0.370313,
2012-05-06, 01:11:05,VALID,999.178,VALID,0,VALID,93.2797,VALID,0,VALID,23.2507,VALID,133,VALID,0.566797,
2012-05-06, 01:12:05,VALID,999.205,VALID,0,VALID,93.356,VALID,0,VALID,23.2312,VALID,133,VALID,0.454688,
2012-05-06, 01:13:05,VALID,999.19,VALID,0,VALID,93.4934,VALID,0.104696,VALID,23.2312,VALID,133,VALID,0.432031,
2012-05-06, 01:14:05,VALID,999.181,VALID,0,VALID,93.5697,VALID,0,VALID,23.2312,VALID,133,VALID,0.374219,
2012-05-06, 01:15:05,VALID,999.208,VALID,0,VALID,93.6994,VALID,0,VALID,23.2507,VALID,133,VALID,0.397656,
2012-05-06, 01:16:05,VALID,999.153,VALID,0,VALID,93.8138,VALID,0.104696,VALID,23.2702,VALID,133,VALID,0.423438,
2012-05-06, 01:17:05,VALID,999.119,VALID,0,VALID,93.8443,VALID,0,VALID,23.2897,VALID,126,VALID,0.564844,
2012-05-06, 01:18:05,VALID,999.131,VALID,0,VALID,93.8443,VALID,0,VALID,23.2897,VALID,105,VALID,0.612109,
2012-05-06, 01:19:05,VALID,999.09,VALID,0,VALID,93.8291,VALID,0,VALID,23.3092,VALID,60,VALID,0.925,
2012-05-06, 01:20:05,VALID,999.13,VALID,0,VALID,93.7223,VALID,0,VALID,23.3092,VALID,47,VALID,0.957422,
2012-05-06, 01:21:05,VALID,999.117,VALID,0,VALID,93.5697,VALID,0,VALID,23.2897,VALID,44,VALID,1.11406,
2012-05-06, 01:22:05,VALID,999.112,VALID,0,VALID,93.4552,VALID,0.104696,VALID,23.2719,VALID,30,VALID,1.05977,
2012-05-06, 01:23:05,VALID,999.095,VALID,0,VALID,93.4628,VALID,0,VALID,23.2117,VALID,30,VALID,0.955469,
2012-05-06, 01:24:05,VALID,999.108,VALID,0,VALID,93.4476,VALID,0,VALID,23.1726,VALID,30,VALID,0.899219,
2012-05-06, 01:25:05,VALID,999.11,VALID,0,VALID,93.4705,VALID,0.104696,VALID,23.1336,VALID,30,VALID,0.743359,
2012-05-06, 01:26:05,VALID,999.072,VALID,0,VALID,93.5239,VALID,0,VALID,23.1141,VALID,30,VALID,0.586328,
2012-05-06, 01:27:05,VALID,999.068,VALID,0,VALID,93.6688,VALID,0,VALID,23.1141,VALID,30,VALID,0.385547,
2012-05-06, 01:28:05,VALID,999.046,VALID,0,VALID,93.6994,VALID,0,VALID,23.0946,VALID,30,VALID,0.222266,
2012-05-06, 01:29:05,VALID,999.04,VALID,0,VALID,93.7299,VALID,0,VALID,23.0751,VALID,30,VALID,0,
2012-05-06, 01:30:05,VALID,999.02,VALID,0,VALID,93.7146,VALID,0,VALID,23.0556,VALID,30,VALID,0,
2012-05-06, 01:31:05,VALID,998.996,VALID,0,VALID,93.707,VALID,0.104696,VALID,23.0361,VALID,30,VALID,0,
2012-05-06, 01:32:05,VALID,998.983,VALID,0,VALID,93.7528,VALID,0,VALID,23.0166,VALID,30,VALID,0,
2012-05-06, 01:33:05,VALID,998.997,VALID,0,VALID,93.8214,VALID,0.104696,VALID,23.0166,VALID,30,VALID,0,
2012-05-06, 01:34:05,VALID,998.97,VALID,0,VALID,93.913,VALID,0,VALID,23.0166,VALID,30,VALID,0.212891,
2012-05-06, 01:35:05,VALID,998.995,VALID,0,VALID,93.9893,VALID,0,VALID,23.0361,VALID,30,VALID,0.152344,
2012-05-06, 01:36:05,VALID,999.004,VALID,0,VALID,94.0503,VALID,0,VALID,23.0361,VALID,30,VALID,0.411328,
2012-05-06, 01:37:05,VALID,999.02,VALID,0,VALID,94.1343,VALID,0,VALID,23.0361,VALID,30,VALID,0.160547,
2012-05-06, 01:38:05,VALID,999.028,VALID,0,VALID,94.1877,VALID,0,VALID,23.0751,VALID,30,VALID,0.232031,
2012-05-06, 01:39:05,VALID,999.064,VALID,0,VALID,94.1495,VALID,0,VALID,23.0964,VALID,30,VALID,0,
2012-05-06, 01:40:05,VALID,999.018,VALID,0,VALID,94.1114,VALID,0,VALID,23.0946,VALID,30,VALID,0,
2012-05-06, 01:41:05,VALID,999.046,VALID,0,VALID,94.0503,VALID,0,VALID,23.0946,VALID,30,VALID,0,
2012-05-06, 01:42:05,VALID,999.031,VALID,0,VALID,94.0122,VALID,0,VALID,23.1159,VALID,30,VALID,0,
2012-05-06, 01:43:05,VALID,999.048,VALID,0,VALID,93.9588,VALID,0.104696,VALID,23.0946,VALID,30,VALID,0,
2012-05-06, 01:44:05,VALID,999.036,VALID,0,VALID,93.9817,VALID,0,VALID,23.1159,VALID,30,VALID,0,
2012-05-06, 01:45:05,VALID,999.059,VALID,0,VALID,93.9664,VALID,0,VALID,23.0946,VALID,30,VALID,0,
2012-05-06, 01:46:05,VALID,999.044,VALID,0,VALID,93.974,VALID,0,VALID,23.0751,VALID,30,VALID,0,
2012-05-06, 01:47:05,VALID,999.054,VALID,0,VALID,94.0122,VALID,0,VALID,23.0751,VALID,30,VALID,0,
2012-05-06, 01:48:05,VALID,999.046,VALID,0,VALID,93.9893,VALID,0,VALID,23.0556,VALID,30,VALID,0,
2012-05-06, 01:49:05,VALID,999.042,VALID,0,VALID,94.0198,VALID,0,VALID,23.0556,VALID,30,VALID,0,
2012-05-06, 01:50:05,VALID,999.059,VALID,0,VALID,94.0351,VALID,0.104696,VALID,23.0556,VALID,30,VALID,0,
2012-05-06, 01:51:05,VALID,999.039,VALID,0,VALID,94.0808,VALID,0,VALID,23.0769,VALID,30,VALID,0,
2012-05-06, 01:52:05,VALID,998.998,VALID,0,VALID,94.0885,VALID,0,VALID,23.0378,VALID,30,VALID,0,
2012-05-06, 01:53:05,VALID,998.99,VALID,0,VALID,94.1114,VALID,0,VALID,23.0378,VALID,30,VALID,0,
2012-05-06, 01:54:05,VALID,998.967,VALID,0,VALID,94.1419,VALID,0,VALID,23.0396,VALID,30,VALID,0,
2012-05-06, 01:55:05,VALID,998.968,VALID,0,VALID,94.1648,VALID,0,VALID,23.0183,VALID,30,VALID,0,
2012-05-06, 01:56:05,VALID,998.914,VALID,0,VALID,94.1877,VALID,0,VALID,23.0396,VALID,30,VALID,0,
2012-05-06, 01:57:05,VALID,998.892,VALID,0,VALID,94.2029,VALID,0,VALID,23.0378,VALID,30,VALID,0,
2012-05-06, 01:58:05,VALID,998.877,VALID,0,VALID,94.2105,VALID,0,VALID,23.0378,VALID,30,VALID,0,
2012-05-06, 01:59:05,VALID,998.846,VALID,0,VALID,94.2487,VALID,0,VALID,23.0378,VALID,30,VALID,0,
2012-05-06, 02:00:05,VALID,998.829,VALID,0,VALID,94.2487,VALID,0,VALID,23.0378,VALID,30,VALID,0,
2012-05-06, 02:01:05,VALID,998.811,VALID,0,VALID,94.1648,VALID,0,VALID,22.9971,VALID,30,VALID,0,
2012-05-06, 02:02:05,VALID,998.795,VALID,0,VALID,94.1877,VALID,0,VALID,23.0396,VALID,30,VALID,0,
2012-05-06, 02:03:05,VALID,998.791,VALID,0,VALID,94.1571,VALID,0,VALID,23.0183,VALID,30,VALID,0,
2012-05-06, 02:04:05,VALID,998.764,VALID,0,VALID,94.119,VALID,0,VALID,23.0396,VALID,30,VALID,0,
2012-05-06, 02:05:05,VALID,998.789,VALID,0,VALID,94.058,VALID,0,VALID,22.9988,VALID,30,VALID,0,
2012-05-06, 02:06:05,VALID,998.764,VALID,0,VALID,93.9893,VALID,0,VALID,22.9793,VALID,30,VALID,0,
2012-05-06, 02:07:05,VALID,998.76,VALID,0,VALID,93.9359,VALID,0,VALID,22.9793,VALID,30,VALID,0,
2012-05-06, 02:08:05,VALID,998.785,VALID,0,VALID,93.913,VALID,0,VALID,22.9598,VALID,30,VALID,0,
2012-05-06, 02:09:05,VALID,998.762,VALID,0,VALID,93.913,VALID,0,VALID,22.919,VALID,30,VALID,0,
2012-05-06, 02:10:05,VALID,998.799,VALID,0,VALID,93.9206,VALID,0,VALID,22.8995,VALID,30,VALID,0,
2012-05-06, 02:11:05,VALID,998.785,VALID,0,VALID,93.9664,VALID,0,VALID,22.9013,VALID,30,VALID,0,
2012-05-06, 02:12:05,VALID,998.81,VALID,0,VALID,93.9817,VALID,0,VALID,22.9208,VALID,30,VALID,0,
2012-05-06, 02:13:05,VALID,998.83,VALID,0,VALID,94.0198,VALID,0,VALID,22.8818,VALID,30,VALID,0,
2012-05-06, 02:14:05,VALID,998.832,VALID,0,VALID,94.0351,VALID,0,VALID,22.9013,VALID,30,VALID,0,
2012-05-06, 02:15:05,VALID,998.831,VALID,0,VALID,94.0503,VALID,0,VALID,22.8818,VALID,30,VALID,0,
2012-05-06, 02:16:05,VALID,998.821,VALID,0,VALID,94.0885,VALID,0.104696,VALID,22.841,VALID,30,VALID,0,
2012-05-06, 02:17:05,VALID,998.846,VALID,0,VALID,94.1571,VALID,0,VALID,22.841,VALID,30,VALID,0,
2012-05-06, 02:18:05,VALID,998.791,VALID,0,VALID,94.2029,VALID,0,VALID,22.841,VALID,30,VALID,0,
2012-05-06, 02:19:05,VALID,998.823,VALID,0,VALID,94.2868,VALID,0,VALID,22.8605,VALID,30,VALID,0,
2012-05-06, 02:20:05,VALID,998.808,VALID,0,VALID,94.3479,VALID,0,VALID,22.8818,VALID,30,VALID,0,
2012-05-06, 02:21:05,VALID,998.791,VALID,0,VALID,94.4165,VALID,0,VALID,22.9013,VALID,30,VALID,0,
2012-05-06, 02:22:05,VALID,998.788,VALID,0,VALID,94.4165,VALID,0,VALID,22.903,VALID,30,VALID,0,
2012-05-06, 02:23:05,VALID,998.8,VALID,0,VALID,94.3708,VALID,0,VALID,22.8835,VALID,30,VALID,0,
2012-05-06, 02:24:05,VALID,998.77,VALID,0,VALID,94.3326,VALID,0,VALID,22.903,VALID,30,VALID,0,
2012-05-06, 02:25:05,VALID,998.741,VALID,0,VALID,94.2792,VALID,0,VALID,22.8835,VALID,30,VALID,0,
2012-05-06, 02:26:05,VALID,998.776,VALID,0,VALID,94.1953,VALID,0,VALID,22.864,VALID,30,VALID,0,
2012-05-06, 02:27:05,VALID,998.742,VALID,0,VALID,94.1343,VALID,0,VALID,22.864,VALID,30,VALID,0,
2012-05-06, 02:28:05,VALID,998.753,VALID,0,VALID,94.1648,VALID,0,VALID,22.8427,VALID,30,VALID,0,
2012-05-06, 02:29:05,VALID,998.755,VALID,0,VALID,94.18,VALID,0,VALID,22.8445,VALID,30,VALID,0,
2012-05-06, 02:30:05,VALID,998.724,VALID,0,VALID,94.2487,VALID,0,VALID,22.8445,VALID,30,VALID,0,
2012-05-06, 02:31:05,VALID,998.734,VALID,0,VALID,94.3021,VALID,0,VALID,22.8232,VALID,30,VALID,0,
2012-05-06, 02:32:05,VALID,998.724,VALID,0,VALID,94.3097,VALID,0,VALID,22.8445,VALID,30,VALID,0,
2012-05-06, 02:33:04,VALID,998.712,VALID,0,VALID,94.3555,VALID,0,VALID,22.8037,VALID,30,VALID,0,
2012-05-06, 02:34:04,VALID,998.722,VALID,0,VALID,94.3555,VALID,0,VALID,22.825,VALID,30,VALID,0,
2012-05-06, 02:35:04,VALID,998.719,VALID,0,VALID,94.3784,VALID,0,VALID,22.825,VALID,30,VALID,0,
2012-05-06, 02:36:04,VALID,998.741,VALID,0,VALID,94.3784,VALID,0,VALID,22.7842,VALID,30,VALID,0,
2012-05-06, 02:37:04,VALID,998.763,VALID,0,VALID,94.3784,VALID,0,VALID,22.7842,VALID,30,VALID,0,
2012-05-06, 02:38:04,VALID,998.758,VALID,0,VALID,94.3097,VALID,0,VALID,22.7452,VALID,30,VALID,0,
2012-05-06, 02:39:04,VALID,998.759,VALID,0,VALID,94.3021,VALID,0,VALID,22.7257,VALID,30,VALID,0,
2012-05-06, 02:40:04,VALID,998.781,VALID,0,VALID,94.3174,VALID,0,VALID,22.685,VALID,30,VALID,0,
2012-05-06, 02:41:04,VALID,998.771,VALID,0,VALID,94.3326,VALID,0,VALID,22.7062,VALID,30,VALID,0,
2012-05-06, 02:42:04,VALID,998.729,VALID,0,VALID,94.3708,VALID,0,VALID,22.6867,VALID,39,VALID,0,
2012-05-06, 02:43:04,VALID,998.746,VALID,0,VALID,94.4394,VALID,0,VALID,22.7062,VALID,92,VALID,0.874609,
2012-05-06, 02:44:04,VALID,998.704,VALID,0,VALID,94.47,VALID,0,VALID,22.7257,VALID,92,VALID,0.736719,
2012-05-06, 02:45:04,VALID,998.684,VALID,0,VALID,94.5081,VALID,0,VALID,22.7452,VALID,90,VALID,0.828125,
2012-05-06, 02:46:04,VALID,998.72,VALID,0,VALID,94.4547,VALID,0.104696,VALID,22.7435,VALID,93,VALID,0.699219,
2012-05-06, 02:47:04,VALID,998.694,VALID,0,VALID,94.4318,VALID,0,VALID,22.7842,VALID,93,VALID,0.59375,
2012-05-06, 02:48:04,VALID,998.69,VALID,0,VALID,94.4242,VALID,0,VALID,22.8037,VALID,93,VALID,0.505078,
2012-05-06, 02:49:04,VALID,998.695,VALID,0,VALID,94.4318,VALID,0,VALID,22.8427,VALID,93,VALID,0.307813,
2012-05-06, 02:50:04,VALID,998.692,VALID,0,VALID,94.3937,VALID,0,VALID,22.8623,VALID,93,VALID,0.323828,
2012-05-06, 02:51:04,VALID,998.675,VALID,0,VALID,94.3479,VALID,0,VALID,22.8605,VALID,93,VALID,0.321875,
2012-05-06, 02:52:04,VALID,998.687,VALID,0,VALID,94.2945,VALID,0,VALID,22.8605,VALID,93,VALID,0.116016,
2012-05-06, 02:53:04,VALID,998.665,VALID,0,VALID,94.2411,VALID,0,VALID,22.8605,VALID,93,VALID,0,
2012-05-06, 02:54:04,VALID,998.685,VALID,0,VALID,94.1724,VALID,0,VALID,22.8623,VALID,93,VALID,0,
2012-05-06, 02:55:04,VALID,998.704,VALID,0,VALID,94.119,VALID,0,VALID,22.8427,VALID,93,VALID,0,
2012-05-06, 02:56:04,VALID,998.695,VALID,0,VALID,94.0351,VALID,0,VALID,22.8232,VALID,93,VALID,0,
2012-05-06, 02:57:04,VALID,998.693,VALID,0,VALID,93.9664,VALID,0,VALID,22.7825,VALID,93,VALID,0,
2012-05-06, 02:58:04,VALID,998.721,VALID,0,VALID,94.0045,VALID,0.104696,VALID,22.7825,VALID,93,VALID,0.0929687,
2012-05-06, 02:59:04,VALID,998.71,VALID,0,VALID,94.1266,VALID,0,VALID,22.7842,VALID,93,VALID,0.317969,
2012-05-06, 03:00:04,VALID,998.703,VALID,0,VALID,94.18,VALID,0,VALID,22.7842,VALID,93,VALID,0.352734,
2012-05-06, 03:01:04,VALID,998.721,VALID,0,VALID,94.1953,VALID,0,VALID,22.7842,VALID,93,VALID,0.334375,
2012-05-06, 03:02:04,VALID,998.723,VALID,0,VALID,94.1724,VALID,0,VALID,22.7842,VALID,77,VALID,0.521094,
2012-05-06, 03:03:04,VALID,998.716,VALID,0,VALID,94.1266,VALID,0,VALID,22.7842,VALID,84,VALID,0.412109,
2012-05-06, 03:04:04,VALID,998.717,VALID,0,VALID,94.0732,VALID,0,VALID,22.7435,VALID,84,VALID,0.519922,
2012-05-06, 03:05:04,VALID,998.704,VALID,0,VALID,94.0885,VALID,0,VALID,22.7647,VALID,84,VALID,0.508594,
2012-05-06, 03:06:04,VALID,998.705,VALID,0,VALID,94.058,VALID,0,VALID,22.7435,VALID,109,VALID,0.476953,
2012-05-06, 03:07:04,VALID,998.72,VALID,0,VALID,94.0656,VALID,0,VALID,22.7664,VALID,109,VALID,0.533594,
2012-05-06, 03:08:04,VALID,998.754,VALID,0,VALID,94.058,VALID,0,VALID,22.7647,VALID,109,VALID,0.353516,
2012-05-06, 03:09:04,VALID,998.773,VALID,0,VALID,94.0274,VALID,0,VALID,22.7647,VALID,109,VALID,0.308594,
2012-05-06, 03:10:04,VALID,998.756,VALID,0,VALID,94.0045,VALID,0,VALID,22.7452,VALID,109,VALID,0.00195313,
2012-05-06, 03:11:04,VALID,998.774,VALID,0,VALID,93.9817,VALID,0,VALID,22.7452,VALID,109,VALID,0,
2012-05-06, 03:12:04,VALID,998.81,VALID,0,VALID,93.9511,VALID,0,VALID,22.7469,VALID,109,VALID,0.103906,
2012-05-06, 03:13:04,VALID,998.793,VALID,0,VALID,93.9435,VALID,0,VALID,22.7257,VALID,109,VALID,0.00585938,
2012-05-06, 03:14:04,VALID,998.759,VALID,0,VALID,93.9511,VALID,0,VALID,22.7274,VALID,109,VALID,0.224609,
2012-05-06, 03:15:04,VALID,998.764,VALID,0,VALID,93.9969,VALID,0,VALID,22.7062,VALID,109,VALID,0,
2012-05-06, 03:16:04,VALID,998.773,VALID,0,VALID,94.0427,VALID,0,VALID,22.6867,VALID,109,VALID,0,
2012-05-06, 03:17:04,VALID,998.811,VALID,0,VALID,94.0961,VALID,0,VALID,22.7079,VALID,109,VALID,0,
2012-05-06, 03:18:04,VALID,998.792,VALID,0,VALID,94.1648,VALID,0,VALID,22.7469,VALID,109,VALID,0,
2012-05-06, 03:19:04,VALID,998.805,VALID,0,VALID,94.18,VALID,0,VALID,22.7469,VALID,109,VALID,0,
2012-05-06, 03:20:04,VALID,998.789,VALID,0,VALID,94.18,VALID,0,VALID,22.7452,VALID,109,VALID,0,
2012-05-06, 03:21:04,VALID,998.795,VALID,0,VALID,94.1571,VALID,0,VALID,22.7664,VALID,109,VALID,0,
2012-05-06, 03:22:04,VALID,998.783,VALID,0,VALID,94.1343,VALID,0,VALID,22.7842,VALID,109,VALID,0,
2012-05-06, 03:23:04,VALID,998.787,VALID,0,VALID,94.0885,VALID,0,VALID,22.763,VALID,109,VALID,0,
2012-05-06, 03:24:04,VALID,998.806,VALID,0,VALID,94.0427,VALID,0,VALID,22.7647,VALID,109,VALID,0,
2012-05-06, 03:25:04,VALID,998.834,VALID,0,VALID,94.0351,VALID,0,VALID,22.7842,VALID,109,VALID,0,
2012-05-06, 03:26:04,VALID,998.823,VALID,0,VALID,94.0351,VALID,0,VALID,22.7842,VALID,109,VALID,0,
2012-05-06, 03:27:04,VALID,998.811,VALID,0,VALID,94.058,VALID,0,VALID,22.7842,VALID,109,VALID,0,
2012-05-06, 03:28:04,VALID,998.818,VALID,0,VALID,94.0351,VALID,0,VALID,22.8037,VALID,109,VALID,0,
2012-05-06, 03:29:04,VALID,998.824,VALID,0,VALID,94.0427,VALID,0,VALID,22.7842,VALID,109,VALID,0,
2012-05-06, 03:30:04,VALID,998.798,VALID,0,VALID,94.0885,VALID,0,VALID,22.7842,VALID,109,VALID,0.350391,
2012-05-06, 03:31:04,VALID,998.802,VALID,0,VALID,94.1114,VALID,0,VALID,22.7825,VALID,94,VALID,0.700391,
2012-05-06, 03:32:04,VALID,998.825,VALID,0,VALID,94.0885,VALID,0,VALID,22.8037,VALID,94,VALID,0.828125,
2012-05-06, 03:33:04,VALID,998.84,VALID,0,VALID,94.0656,VALID,0,VALID,22.8232,VALID,94,VALID,0.663281,
2012-05-06, 03:34:04,VALID,998.876,VALID,0,VALID,94.0274,VALID,0,VALID,22.8215,VALID,94,VALID,0.6125,
2012-05-06, 03:35:04,VALID,998.86,VALID,0,VALID,93.9435,VALID,0,VALID,22.8427,VALID,94,VALID,0.675781,
2012-05-06, 03:36:04,VALID,998.857,VALID,0,VALID,93.8596,VALID,0,VALID,22.8623,VALID,93,VALID,0.841797,
2012-05-06, 03:37:04,VALID,998.869,VALID,0,VALID,93.7833,VALID,0,VALID,22.8215,VALID,91,VALID,0.361719,
2012-05-06, 03:38:04,VALID,998.88,VALID,0,VALID,93.7375,VALID,0,VALID,22.8427,VALID,91,VALID,0.641797,
2012-05-06, 03:39:04,VALID,998.871,VALID,0,VALID,93.7146,VALID,0,VALID,22.8232,VALID,91,VALID,0.328516,
2012-05-06, 03:40:04,VALID,998.835,VALID,0,VALID,93.707,VALID,0,VALID,22.8232,VALID,91,VALID,0.496094,
2012-05-06, 03:41:04,VALID,998.85,VALID,0,VALID,93.7146,VALID,0,VALID,22.8037,VALID,91,VALID,0.504297,
2012-05-06, 03:42:04,VALID,998.87,VALID,0,VALID,93.7909,VALID,0,VALID,22.7647,VALID,67,VALID,0.625781,
2012-05-06, 03:43:04,VALID,998.853,VALID,0,VALID,93.913,VALID,0,VALID,22.763,VALID,38,VALID,0.667578,
2012-05-06, 03:44:04,VALID,998.865,VALID,0,VALID,94.0122,VALID,0,VALID,22.763,VALID,36,VALID,0.540625,
2012-05-06, 03:45:04,VALID,998.864,VALID,0,VALID,94.1114,VALID,0,VALID,22.7842,VALID,36,VALID,0.391797,
2012-05-06, 03:46:04,VALID,998.849,VALID,0,VALID,94.1037,VALID,0,VALID,22.7435,VALID,36,VALID,0.412891,
2012-05-06, 03:47:04,VALID,998.847,VALID,0,VALID,94.1114,VALID,0,VALID,22.7647,VALID,36,VALID,0.448438,
2012-05-06, 03:48:04,VALID,998.826,VALID,0,VALID,94.119,VALID,0,VALID,22.7435,VALID,36,VALID,0.485938,
2012-05-06, 03:49:04,VALID,998.857,VALID,0,VALID,94.0885,VALID,0,VALID,22.7452,VALID,36,VALID,0.442969,
2012-05-06, 03:50:04,VALID,998.813,VALID,0,VALID,94.0656,VALID,0,VALID,22.7257,VALID,36,VALID,0.602344,
2012-05-06, 03:51:04,VALID,998.832,VALID,0,VALID,94.0427,VALID,0,VALID,22.6867,VALID,36,VALID,0.511328,